STARLINK-30369, 57781

Orbit data source: Space-Track

STARLINK-30369, 57781 is a payload satellite in LEO that was launched on Mon, 04 Sep 2023 UTC via an FALCON 9 launch vehicle from the Air Force Eastern Test Range (AFETR). Payload-class satellites include a variety of spacecraft equipped with specific instruments for various scientific and technological missions. These include communications satellites like Starlink; space stations such as the ISS; scientific satellites like the Hubble; Earth observation satellites from companies like Planet Labs, Umbra, and HawkEye 360; GPS; miniature CubeSats for education and research; and military/defense satellites.

Loading next visibility...
Identifier
57781, 2023-134L
Orbit
LEO
Last TLE update
16 hours ago
Origin
Manufacturer
SpaceX/Seattle
Mission
Operational Commercial Communications
Bus & Motor
STARLINK V2M, Unknown motor
Mass
730 kg wet, ~700 kg dry
Launch date (UTC)
2023-09-04 (2 years ago)
Launch vehicle
FALCON 9
Launch site
Air Force Eastern Test Range (AFETR)
Object type
Payload
Rocket body
Debris
Shape & HBR
Box + 2 Pan, 29 m
Radar Cross Section
33.884 m², Large (>1 m²)

Expand to show TLE details & history

TLE from 16 hours ago
0 STARLINK-30369
1 57781U 23134L   25150.71527525  .00002217  00000-0  17920-3 0  9992
2 57781  43.0041 295.1791 0001132 261.4048  98.6666 15.02527661 96908
Epoch: 2025-05-30T17:09Z
TLE epoch observation values (Epoch: 2025-05-30T17:09:59.781Z)
Latitude
-0.00003°
Longitude
149.21394°
Altitude
559.002 km
Speed
7.584 km/s
True Right ascension
19h 40m 42s
True Declination
0° 00' 00"
Sunlit
Object was in full shadow at epoch
Visualization orbit readout
Latitude
-41.62175°
Longitude
74.32853°
Altitude
571.084 km
Speed
7.576 km/s
Apparent Right ascension
10h 45m 09s
Apparent Declination
-61° 29' 15"
Sunlit
Object is in full shadow
Visualization observer readout
Local Sidereal Time
18:22:58
Azimuth
218.455° SW
Elevation
-45.677°
Doppler factor
1
Orbital elements
Apogee altitude
561.814 km
Perigee altitude
560.243 km
Semi-major axis
6,939.165 km
Eccentricity
0.00011
Inclination
43.0041°
RAAN
295.1791°
Arg. of periapsis
261.4048°
True anomaly
Unknown
Mean anomaly
98.6666°
Eccentric anomaly
Unknown
Mean motion
3.75476 °/min
Orbital period
95.88 mins
BSTAR
0.0001792
Loading maneuver chart data...
Loading SW <> Apogee altitude chart data...
Loading historical data...
Loading historical data...
Loading historical data...
Loading historical data...
Loading historical data...
Loading historical data...
Loading historical data...

STARLINK-30369 Visibility forecast

Observer location: undefined°, undefined°

Span
Click to sort rows by Start time (UTC) header in descending order
Start Az.
Max El. time (UTC)
Max El. Az.
Max El.
End time (UTC)
End Az.
7 mins2025-05-31 12:30:01.337Z207.327° SW2025-05-31 12:33:01.337Z156.561° SSE27.197°2025-05-31 12:37:01.337Z85.097° E
6 mins2025-05-31 14:11:01.337Z258.128° W2025-05-31 14:14:01.337Z29.751° NE44.092°2025-05-31 14:17:01.337Z70.441° E
6 mins2025-05-31 15:52:01.337Z289.488° WNW2025-05-31 15:55:01.337Z22.035° NNE38.887°2025-05-31 15:58:01.337Z78.145° E
6 mins2025-05-31 17:33:01.337Z286.488° WNW2025-05-31 17:36:01.337Z127.131° SE43.098°2025-05-31 17:39:01.337Z112.911° SE
5 mins2025-05-31 19:14:01.337Z251.364° W2025-05-31 19:16:01.337Z212.447° SW20.969°2025-05-31 19:19:01.337Z165.076° S
|